"Pseudo-MPEC" for C1E0GF2

Created 2019 Nov 15 13:07:04 UT using Find_Orb

Click here for an explanation of pseudo-MPECs

 
 Astrometry: 
     C1E0GF2  C2019 11 04.43322 09 14 29.85 +32 46 28.0    ~B4B7 21.4 GVNEOCPG96
     C1E0GF2  C2019 11 04.43794 09 14 30.87 +32 46 30.9    ~B4B7 21.4 GVNEOCPG96
     C1E0GF2  C2019 11 04.44267 09 14 31.89 +32 46 34.6    ~B4B7 21.7 GVNEOCPG96
     C1E0GF2  C2019 11 04.44738 09 14 32.89 +32 46 37.8    ~B4B7 21.1 GVNEOCPG96
     C1E0GF2  C2019 11 04.47690 09 14 39.25 +32 46 58.9    ~B4C7 21.4 GVNEOCPI52
     C1E0GF2  C2019 11 04.48107 09 14 40.11 +32 47 01.3    ~B4C7 21.2 GVNEOCPI52
     C1E0GF2  C2019 11 04.48524 09 14 41.00 +32 47 05.0    ~B4C7 21.6 GVNEOCPI52
     C1E0GF2  C2019 11 05.51747 09 18 25.74 +32 59 06.9    ~B5Cq 21.3 GVNEOCPG96
     C1E0GF2  C2019 11 05.51939 09 18 26.10 +32 59 08.5    ~B5Cq 21.0 GVNEOCPG96

Station data:
(G96) Mt. Lemmon Survey  (N32.442754 W110.788720)  US/Arizona.  Observers T.
   A. Pruyne, B. M. Africano, E. J. Christensen, G. A. Farneth, D. C. Fuls,
   A. R. Gibbs, A. D. Grauer, H. Gröller, J. A. Johnson, R. A. Kowalski, S.
   M. Larson, G. J. Leonard, D. Rankin, R. L. Seaman, F. C. Shelly. 1.5-m
   reflector + 10K CCD.
(I52) Steward Observatory, Mt. Lemmon Station  (N32.442547 W110.788920)
   US/Arizona.  Observers T. A. Pruyne, B. M. Africano, E. J. Christensen, G.
   A. Farneth, D. C. Fuls, A. R. Gibbs, A. D. Grauer, H. Gröller, J. A.
   Johnson, R. A. Kowalski, S. M. Larson, G. J. Leonard, D. Rankin, R. L.
   Seaman, F. C. Shelly. 1.0-m reflector + CCD.

Orbital elements:  C1E0GF2
   Perihelion 2019 Dec 25.075291 +/- 75.1 TT =  1:48:25 (JD 2458842.575291)
Epoch 2019 Nov  5.0 TT = JDT 2458792.5   Earth MOID: 0.6039   AutoNEOCP
M 347.80042259 +/- 55               (J2000 ecliptic)
n   0.24362469 +/- 0.241            Peri.   60.58546 +/- 60
a   2.53895601 +/- 1.67             Node    64.25624 +/- 12
e   0.4257474 +/- 0.21              Incl.   26.55378 +/- 6
P   4.05                   H 18.8   G  0.15   U 11.8  SR
q 1.45800206 +/- 0.267    Q 3.61990995 +/- 5.08
From 9 observations 2019 Nov. 4-5 (26.1 hr); mean residual 0".23
Residuals in arcseconds: 
191104 G96  .01+  .33+    191104 G96  .04-  .01-    191104 I52  .24-  .18+    
191104 G96  .07+  .15-    191104 I52  .25+  .02+    191105 G96  .34+  .12-    
191104 G96  .12+  .16+    191104 I52  .18-  .55-    191105 G96  .33-  .13+    

Ephemerides (geocentric):
Date (UTC) HH   RA              Dec         delta   r     elong  mag " sig PA
---- -- -- --  -------------   -----------  ------ ------ -----  --- ---- ---
2019 11 15 13  09 55 51.464   +34 54 01.65  1.0721 1.5031  93.6 21.5 1629 170
2019 11 15 14  09 56 01.018   +34 54 29.68  1.0718 1.5030  93.6 21.5 1642 170
2019 11 15 15  09 56 10.574   +34 54 57.70  1.0715 1.5029  93.6 21.5 1655 170
2019 11 15 16  09 56 20.132   +34 55 25.72  1.0712 1.5028  93.6 21.5 1668 170
2019 11 15 17  09 56 29.691   +34 55 53.73  1.0709 1.5027  93.6 21.5 1682 170
2019 11 15 18  09 56 39.252   +34 56 21.74  1.0706 1.5026  93.6 21.5 1695 170
2019 11 15 19  09 56 48.815   +34 56 49.74  1.0703 1.5025  93.6 21.5 1709 170
2019 11 15 20  09 56 58.379   +34 57 17.73  1.0700 1.5024  93.6 21.5 1722 170
2019 11 15 21  09 57 07.944   +34 57 45.72  1.0697 1.5023  93.6 21.5 1736 170
2019 11 15 22  09 57 17.512   +34 58 13.70  1.0694 1.5022  93.7 21.5 1750 170
2019 11 15 23  09 57 27.081   +34 58 41.67  1.0691 1.5021  93.7 21.5 1763 170
2019 11 16 00  09 57 36.651   +34 59 09.63  1.0688 1.5021  93.7 21.5 1777 170
2019 11 16 01  09 57 46.223   +34 59 37.59  1.0685 1.5020  93.7 21.5 1791 170
2019 11 16 02  09 57 55.797   +35 00 05.55  1.0682 1.5019  93.7 21.5 1805 170
2019 11 16 03  09 58 05.372   +35 00 33.49  1.0680 1.5018  93.7 21.5 1819 170
2019 11 16 04  09 58 14.949   +35 01 01.43  1.0677 1.5017  93.7 21.5 1833 170
2019 11 16 05  09 58 24.527   +35 01 29.36  1.0674 1.5016  93.7 21.5 1847 170
2019 11 16 06  09 58 34.107   +35 01 57.29  1.0671 1.5015  93.7 21.5 1861 170
2019 11 16 07  09 58 43.689   +35 02 25.20  1.0668 1.5014  93.8 21.5 1875 170
2019 11 16 08  09 58 53.272   +35 02 53.12  1.0665 1.5013  93.8 21.5 1890 170
2019 11 16 09  09 59 02.857   +35 03 21.02  1.0662 1.5012  93.8 21.5 1904 170
2019 11 16 10  09 59 12.443   +35 03 48.92  1.0659 1.5011  93.8 21.5 1918 170
2019 11 16 11  09 59 22.031   +35 04 16.81  1.0656 1.5011  93.8 21.5 1933 170
2019 11 16 12  09 59 31.620   +35 04 44.69  1.0653 1.5010  93.8 21.5 1947 170
2019 11 16 13  09 59 41.211   +35 05 12.57  1.0650 1.5009  93.8 21.5 1962 171
2019 11 16 14  09 59 50.804   +35 05 40.44  1.0647 1.5008  93.8 21.5 1976 171
2019 11 16 15  10 00 00.398   +35 06 08.30  1.0645 1.5007  93.8 21.5 1991 171
2019 11 16 16  10 00 09.993   +35 06 36.16  1.0642 1.5006  93.9 21.5 2006 171
2019 11 16 17  10 00 19.590   +35 07 04.01  1.0639 1.5005  93.9 21.5 2021 171
2019 11 16 18  10 00 29.189   +35 07 31.85  1.0636 1.5004  93.9 21.5 2035 171
2019 11 16 19  10 00 38.789   +35 07 59.68  1.0633 1.5003  93.9 21.5 2050 171
2019 11 16 20  10 00 48.391   +35 08 27.51  1.0630 1.5002  93.9 21.5 2065 171
2019 11 16 21  10 00 57.994   +35 08 55.33  1.0627 1.5002  93.9 21.5 2080 171
2019 11 16 22  10 01 07.599   +35 09 23.15  1.0624 1.5001  93.9 21.5 2095 171
2019 11 16 23  10 01 17.205   +35 09 50.95  1.0621 1.5000  93.9 21.5 2110 171
2019 11 17 00  10 01 26.813   +35 10 18.75  1.0619 1.4999  93.9 21.5 2125 171
2019 11 17 01  10 01 36.422   +35 10 46.54  1.0616 1.4998  94.0 21.5 2141 171
2019 11 17 02  10 01 46.033   +35 11 14.33  1.0613 1.4997  94.0 21.5 2156 171
2019 11 17 03  10 01 55.645   +35 11 42.11  1.0610 1.4996  94.0 21.5 2171 171
2019 11 17 04  10 02 05.259   +35 12 09.88  1.0607 1.4995  94.0 21.5 2187 171
2019 11 17 05  10 02 14.874   +35 12 37.64  1.0604 1.4994  94.0 21.5 2202 171
2019 11 17 06  10 02 24.491   +35 13 05.40  1.0601 1.4994  94.0 21.5 2218 171
2019 11 17 07  10 02 34.110   +35 13 33.15  1.0598 1.4993  94.0 21.5 2233 171
2019 11 17 08  10 02 43.729   +35 14 00.89  1.0596 1.4992  94.0 21.5 2249 171
2019 11 17 09  10 02 53.351   +35 14 28.62  1.0593 1.4991  94.0 21.5 2264 171
2019 11 17 10  10 03 02.973   +35 14 56.35  1.0590 1.4990  94.1 21.5 2280 171
2019 11 17 11  10 03 12.598   +35 15 24.07  1.0587 1.4989  94.1 21.5 2296 171
2019 11 17 12  10 03 22.223   +35 15 51.78  1.0584 1.4988  94.1 21.5 2312 171